Weather Roundup
Issued by NWS

Home | Current Version | Previous Version | Text Only | Print | Product List | Glossary On
Versions: 1 2 3 4 5 6 7 8 9 10 11 12 13 14 15 16 17 18 19 20 21 22 23 24 25 26 27 28 29 30 31 32 33 34 35 36 37 38 39 40 41 42 43 44 45 46 47 48 49 50
000
NZUS93 KARX 200010
HRRWXR

CURRENT HOURLY OBSERVATIONS ACROSS
MUCH OF THE UPPER MISSISSIPPI VALLEY
NATIONAL WEATHER SERVICE LA CROSSE WI
600 PM CST THU JAN 19 2017


...SOUTHEAST MINNESOTA...


CITY           SKY/WX    TMP DP  RH WIND       PRES   REMARKS
ROCHESTER      CLOUDY    34  32  92 SE14      29.74F WCI  25
ROCHESTER/MAYO CLOUDY    36  34  92 SE9       29.75F WCI  29
WINONA         RAIN      36  34  93 CALM      29.80S
AUSTIN         CLOUDY    36  32  87 SE8       29.73S WCI  29
ALBERT LEA     CLOUDY    36  34  93 SE7       29.71F WCI  30
DODGE CENTER   MOCLDY    36  32  87 SE9       29.73F WCI  29
PRESTON        MOCLDY    34  32  92 SE9       29.76F FOG     WCI  27
OWATONNA       CLOUDY    37  32  81 SE10      29.73F WCI  30
FARIBAULT        N/A     37  32  81 SE5       29.74F WCI  34
$$

...ELSEWHERE IN MINNESOTA...


CITY           SKY/WX    TMP DP  RH WIND       PRES   REMARKS
MINNEAPOLIS    CLOUDY    36  31  82 SE8       29.76R WCI  30
INTNL FALLS    CLEAR     36  33  89 SE3       29.63S
DULUTH         CLEAR     38  33  82 SE3       29.72S
RED WING       CLOUDY    37  32  81 E5        29.77S WCI  34
REDWOOD FALLS  CLOUDY    35  35 100 CALM      29.70R FOG
MANKATO        CLOUDY    35  32  88 SE9       29.73S WCI  28
WORTHINGTON    FOG       35  35 100 S3        29.68S VSB 1/4
FAIRMONT       CLOUDY    35  33  92 SE10      29.71S WCI  27
$$

...SOUTHWEST WISCONSIN...


CITY           SKY/WX    TMP DP  RH WIND       PRES   REMARKS
LA CROSSE      LGT RAIN  38  34  85 E7        29.80F WCI  33
PRAIRIE DU CHI RAIN      36  35  96 CALM      29.79F
BOSCOBEL       LGT RAIN  37  35  92 CALM      29.82F FOG
LONE ROCK      LGT RAIN  36  34  92 E5        29.83F FOG     WCI  32
PLATTEVILLE    CLOUDY    35  35 100 E9        29.80F WCI  28
FORT MC COY    CLOUDY    37  33  85 SE3       29.83S
CAMP DOUGLAS   CLOUDY    35  32  88 CALM      29.82F
MAUSTON-NEW LI CLOUDY    35  33  90 CALM      29.82S
VIROQUA        CLOUDY    35  34  97 E7        29.80S WCI  29
WIS DELLS      CLOUDY    35  33  92 E3        29.82F FOG
$$

...ELSEWHERE IN WISCONSIN...


CITY           SKY/WX    TMP DP  RH WIND       PRES   REMARKS
MILWAUKEE      LGT RAIN  36  34  92 SE8       29.87F VSB 1/16WCI  30
MADISON        LGT RAIN  36  34  92 CALM      29.85R FOG
GREEN BAY      FOG       33  33 100 CALM      29.87F VSB 1/4
EAU CLAIRE     CLOUDY    39  32  76 SE3       29.79F
BLACK RVR FLS  CLOUDY    40  31  70 CALM      29.81S
MEDFORD        FOG       31  30  98 CALM      29.81S VSB 1/2
WAUSAU         CLOUDY    32  31  96 SE8       29.83R FOG     WCI  25
WIS RAPIDS     CLEAR     34  32  92 CALM      29.84F
MARSHFIELD     FOG       32  31  96 E8        29.82R VSB 1/4 WCI  25
RICE LAKE      CLOUDY    37  33  84 SE7       29.80R WCI  31
$$

...NORTHEAST IOWA...


CITY           SKY/WX    TMP DP  RH WIND       PRES   REMARKS
WATERLOO       LGT RAIN  36  35  96 SE10      29.73S FOG     WCI  28
DUBUQUE        LGT RAIN  36  36 100 E8        29.77F FOG     WCI  30
DECORAH        CLOUDY    36  34  93 E9        29.76F FOG     WCI  29
MASON CITY     LGT RAIN  35  33  92 SE6       29.74R WCI  30
CHARLES CITY   CLOUDY    36  36 100 SE14      29.73S FOG     WCI  27
OELWEIN        LGT RAIN  36  36 100 E12       29.74F WCI  27
$$

...ELSEWHERE IN IOWA...


CITY           SKY/WX    TMP DP  RH WIND       PRES   REMARKS
DES MOINES     DRZL/FOG  38  37  97 E8        29.70F VSB 1/2 WCI  32
IOWA CITY      LGT RAIN  40  38  93 E6        29.77R
FORT DODGE     CLOUDY    36  34  93 E5        29.70S WCI  32
MARSHALLTOWN   LGT RAIN  36  36 100 E8        29.72R FOG     WCI  30
CEDAR RAPIDS   RAIN      36  36 100 E10       29.74S FOG     WCI  28
$$

...NORTHERN ILLINOIS...


CITY           SKY/WX    TMP DP  RH WIND       PRES   REMARKS
CHICAGO-OHARE  LGT RAIN  39  36  89 E7        29.83F FOG     WCI  34
CHICAGO-MIDWAY LGT RAIN  38  35  89 E10       29.84F FOG     WCI  31
MOLINE         CLOUDY    39  36  89 E16       29.75F FOG     WCI  30
ROCKFORD       LGT RAIN  39  37  92 E7        29.82F FOG     WCI  34
PEORIA         LGT RAIN  41  40  96 E10       29.75F
$$

NOTE: "FAIR" INDICATES FEW OR NO CLOUDS BELOW 12,000 FEET WITH NO
SIGNIFICANT WEATHER AND/OR OBSTRUCTIONS TO VISIBILITY. WIND
SPEEDS ARE IN MILES-PER-HOUR.




USA.gov is the U.S. government's official web portal to all federal, state and local government web resources and services.